Wind_Speed
1 2 5 7 8 9 8 7 7 8 8 9 9 10 11 13 14 15 16 16 17 17 17 17 17 17 17 17 17 17 17 17 16 16 15 15 14 14 14 14 13 14
3 5 8 9 10 11 11 10 10 9 10 10 10 11 13 14 15 15 16 16 17 17 17 18 18 18 19 19 19 19 20 20 20 19 18 17 16 16 15 16 16 16
7 9 10 11 11 11 11 10 10 10 10 11 12 13 14 15 16 16 16 17 17 17 18 19 19 20 20 20 20 21 21 22 22 22 21 19 19 17 15 15 16 16
10 10 10 10 11 11 10 10 11 11 11 13 15 15 16 16 17 17 17 18 18 19 19 20 20 21 21 21 22 22 22 23 22 22 23 23 23 21 18 17 16 16
10 9 9 10 11 12 12 13 14 14 15 16 16 16 17 17 18 18 19 19 19 20 20 21 21 21 22 23 23 23 24 24 24 24 24 25 25 25 24 23 21 19
11 11 12 12 13 14 15 17 17 17 17 17 17 18 18 18 18 19 19 20 20 21 21 22 23 23 23 24 24 25 25 25 26 27 26 25 25 26 26 25 24 21
14 14 15 15 16 16 17 18 18 18 18 18 18 18 19 18 18 19 20 20 21 22 22 23 24 24 25 26 26 27 27 28 28 28 27 27 27 26 26 25 24 21
15 15 16 16 17 17 18 18 18 18 18 18 18 18 18 18 18 19 20 20 21 22 22 23 24 25 26 27 28 28 29 29 29 29 29 28 28 27 26 25 25 22
15 16 16 17 17 18 18 18 18 18 18 18 18 18 18 18 18 19 19 20 21 21 22 23 24 25 26 27 28 29 29 30 30 30 30 29 27 26 25 24 23 22
16 17 17 18 18 18 18 18 18 17 17 17 18 18 18 18 18 18 19 19 20 21 22 23 24 25 26 27 28 29 30 31 31 31 31 29 27 25 24 22 21 21
18 18 18 18 18 18 17 17 17 17 17 17 17 17 18 18 18 18 19 20 21 21 22 23 24 25 26 27 28 30 31 31 31 31 30 27 25 24 23 21 20 20
19 18 18 18 18 17 17 16 16 16 16 17 17 17 18 18 18 19 20 20 20 21 22 23 24 25 26 27 29 29 30 30 30 29 27 25 23 21 21 20 20 20
19 18 18 17 17 17 16 16 16 16 16 16 17 17 17 18 18 19 19 19 20 20 21 22 24 25 26 27 28 28 28 27 27 26 24 22 21 19 19 19 19 19
18 18 18 17 17 17 17 17 17 17 17 17 17 17 17 18 18 18 18 18 19 19 19 21 24 25 26 27 27 27 26 24 23 24 23 21 19 18 17 18 19 18
18 18 18 17 17 17 17 17 17 17 18 17 17 17 18 18 17 17 18 18 18 18 17 20 24 25 26 27 27 26 25 22 21 22 21 20 19 19 17 18 19 18
19 18 18 18 18 18 18 18 18 19 18 18 18 18 18 18 17 17 18 18 18 17 16 18 23 25 25 25 25 25 24 23 21 20 20 19 20 20 18 18 19 17
19 19 19 19 19 19 19 19 19 20 19 19 19 19 19 18 18 18 19 19 19 18 17 18 23 26 25 25 25 24 24 23 21 20 20 19 20 19 18 19 18 18
19 19 19 20 20 20 20 20 20 20 20 20 20 20 19 19 19 20 21 21 20 19 20 22 24 26 25 25 26 24 23 22 20 19 19 19 19 19 18 19 18 19
19 19 20 20 20 21 21 21 20 21 21 20 21 21 20 20 21 21 22 23 21 20 22 25 26 26 26 27 26 24 22 22 19 18 19 18 19 19 18 19 19 20
19 20 20 20 21 21 21 21 21 21 21 21 21 21 21 22 22 22 23 24 22 20 22 26 27 27 27 28 27 24 23 22 20 19 19 19 19 20 19 19 19 21
19 20 20 20 21 21 21 21 21 21 21 21 21 22 22 22 23 23 23 24 24 22 22 25 27 27 28 29 29 26 23 21 19 18 19 19 19 20 20 20 20 21
19 20 20 20 20 20 20 20 20 21 21 22 22 22 22 23 23 23 23 24 25 24 23 24 26 28 29 30 31 28 23 20 19 18 19 19 20 20 20 20 20 21
19 19 20 19 19 19 20 20 20 20 21 21 21 22 22 23 23 23 23 24 24 24 23 22 25 28 29 30 32 30 24 20 20 19 18 20 20 20 20 20 21 22
18 18 18 18 18 18 19 19 19 19 20 20 21 21 22 22 22 22 23 23 23 24 23 22 23 26 28 29 31 30 25 20 20 20 18 19 20 20 20 21 22 23
18 18 17 17 18 18 18 18 18 18 19 19 20 20 20 21 21 21 22 23 23 23 24 23 23 25 27 28 29 30 27 20 19 20 19 18 20 20 20 21 21 22
18 18 17 17 17 17 17 17 17 16 17 18 18 18 18 19 19 20 21 22 22 23 23 24 24 24 25 26 26 27 27 23 20 21 19 17 19 21 20 21 21 22
Wind_Direction
1 108 112 110 106 104 103 100 100 97 92 84 73 64 57 53 51 49 47 45 41 37 34 31 28 25 24 23 22 20 17 15 12 10 11 11 7 2 355 349 342 332
115 111 110 107 104 103 103 104 104 98 90 83 76 68 63 60 57 53 50 47 43 38 35 32 29 27 26 25 25 25 23 20 17 13 11 8 6 3 360 358 356 349
102 101 102 100 100 100 99 101 100 93 87 82 77 72 67 63 59 54 51 49 46 42 38 35 33 30 30 30 30 30 29 26 23 21 18 12 9 5 360 359 356 353
97 94 94 94 97 97 95 97 95 90 86 82 78 72 67 62 58 55 52 50 46 43 40 37 34 33 33 33 32 31 31 28 24 24 23 18 15 12 6 2 357 354
95 91 90 93 96 95 95 95 93 88 84 81 78 72 67 63 60 56 52 49 46 43 40 38 36 35 34 33 32 31 30 28 25 24 24 20 17 16 12 9 4 359
97 95 93 95 96 95 94 93 91 88 84 81 78 74 69 65 61 57 53 50 47 43 41 39 37 35 34 33 31 30 29 27 25 24 23 20 17 15 13 11 9 4
98 98 98 100 101 97 94 92 90 88 85 82 78 75 71 67 63 59 55 50 47 45 42 39 36 33 33 31 30 28 27 25 24 23 21 19 17 14 11 9 9 7
100 101 103 103 101 98 95 93 90 87 85 82 78 75 72 68 64 60 56 51 47 44 41 38 35 32 31 29 27 26 25 23 21 20 18 17 16 13 10 9 8 6
105 104 105 103 100 98 96 93 90 87 84 81 78 75 71 67 63 59 55 50 46 43 40 37 33 31 29 27 25 24 22 21 19 17 16 16 14 12 9 7 5 2
108 107 105 103 100 98 95 93 90 87 84 80 77 74 70 65 61 57 53 49 45 42 39 35 32 30 28 25 24 22 20 18 16 15 14 13 12 11 9 5 3 360
110 108 105 102 99 96 93 91 89 86 83 80 76 72 68 64 58 54 51 46 42 39 36 34 31 29 27 24 23 21 19 16 14 14 13 11 10 9 6 5 3 360
110 108 105 102 100 96 93 91 88 86 83 79 75 70 66 62 56 52 48 44 40 37 35 32 29 26 24 23 21 20 18 15 14 14 12 11 10 6 5 5 3 359
110 108 105 102 99 96 93 91 88 86 83 78 74 69 65 61 56 51 46 43 40 37 35 31 27 24 22 21 20 18 17 15 14 13 12 11 9 7 6 4 1 358
111 108 104 101 97 94 92 90 88 85 82 78 74 70 66 60 55 50 46 43 40 37 35 31 27 22 19 18 17 16 15 14 13 13 12 11 9 8 6 2 359 357
111 107 103 99 96 94 91 89 87 84 81 79 74 70 66 61 56 51 46 43 40 37 35 32 27 23 18 15 14 14 13 14 14 13 11 9 9 8 5 2 360 357
108 104 100 98 95 93 91 88 87 84 81 78 74 70 66 61 57 52 48 46 42 38 37 33 26 22 18 15 14 12 12 15 16 11 10 10 8 6 3 360 359 357
107 103 101 98 96 94 91 88 85 82 79 76 72 69 65 61 58 53 49 47 45 40 37 32 25 22 19 16 16 13 12 17 18 11 12 12 7 5 2 358 358 357
108 105 103 100 97 94 91 87 84 81 78 74 71 68 64 62 58 54 51 49 46 42 37 31 26 24 20 17 17 15 14 21 20 13 14 12 6 4 1 358 358 356
111 108 105 102 98 94 90 87 83 80 77 73 71 68 65 62 58 54 51 49 47 44 37 31 28 25 22 20 18 15 18 25 22 15 16 12 6 5 1 357 357 355
113 110 107 102 98 94 90 87 83 80 77 73 71 68 64 61 57 54 51 48 47 45 37 31 29 26 23 22 20 18 23 27 20 14 16 11 6 4 1 357 357 356
115 112 107 101 97 94 90 87 83 80 77 73 70 67 63 60 56 53 50 47 46 47 40 32 29 27 25 25 24 23 28 27 17 12 14 9 5 5 2 359 357 357
117 112 106 100 97 93 89 85 81 78 76 72 68 65 61 58 55 52 50 47 44 46 43 34 30 28 28 28 26 26 30 26 15 11 12 8 5 4 2 360 358 358
118 112 106 101 97 93 89 85 80 77 75 71 67 64 59 57 54 50 49 47 43 43 42 37 31 29 29 29 27 28 32 27 15 13 12 8 6 5 3 1 359 357
118 112 107 103 99 94 89 85 81 77 74 71 67 63 59 56 54 50 47 46 42 41 41 38 33 28 28 29 28 29 33 28 15 13 13 8 7 6 3 2 0 355
120 114 109 105 100 95 90 86 82 77 74 71 67 63 59 57 54 51 48 45 42 39 38 37 33 28 26 27 27 28 32 30 16 12 13 9 6 6 3 2 3 357
121 115 110 105 100 96 91 86 82 78 74 71 68 65 61 57 55 52 48 46 43 39 37 34 32 29 25 24 25 25 29 32 23 14 14 11 6 4 3 1 2 360
Height
1557 1557 1557 1557 1558 1558 1559 1559 1559 1559 1558 1558 1557 1557 1557 1557 1556 1556 1555 1554 1553 1552 1551 1550 1549 1548 1547 1546 1544 1543 1542 1541 1539 1538 1537 1536 1535 1534 1533 1532 1530 1529
1557 1556 1557 1557 1557 1558 1558 1558 1558 1558 1558 1558 1557 1557 1557 1557 1556 1556 1555 1554 1553 1552 1551 1550 1549 1547 1546 1545 1544 1542 1541 1540 1539 1537 1536 1535 1534 1533 1531 1530 1529 1527
1556 1556 1557 1557 1557 1558 1558 1558 1558 1558 1558 1558 1558 1558 1557 1557 1556 1556 1555 1554 1553 1552 1551 1550 1548 1547 1546 1545 1543 1542 1541 1540 1539 1537 1536 1535 1534 1532 1531 1529 1528 1526
1557 1557 1557 1557 1557 1558 1558 1558 1558 1558 1558 1558 1558 1558 1557 1557 1556 1555 1555 1554 1553 1552 1551 1549 1548 1547 1546 1545 1543 1542 1541 1540 1539 1538 1536 1535 1534 1532 1531 1529 1528 1526
1557 1557 1557 1558 1558 1558 1558 1558 1558 1558 1558 1558 1558 1558 1557 1557 1556 1555 1555 1554 1553 1552 1550 1550 1549 1547 1546 1545 1544 1543 1541 1540 1539 1538 1536 1535 1534 1532 1530 1529 1527 1526
1557 1558 1558 1558 1558 1558 1559 1559 1559 1559 1559 1559 1559 1558 1557 1557 1556 1555 1555 1554 1553 1552 1551 1550 1549 1548 1546 1545 1544 1543 1542 1541 1539 1538 1537 1535 1534 1532 1530 1528 1527 1526
1558 1558 1558 1559 1559 1559 1559 1560 1560 1560 1560 1559 1559 1558 1558 1557 1557 1556 1555 1554 1553 1552 1551 1550 1549 1548 1546 1545 1544 1543 1542 1541 1539 1538 1536 1535 1533 1531 1530 1528 1526 1525
1559 1559 1560 1560 1560 1560 1560 1560 1560 1560 1560 1560 1559 1559 1558 1558 1557 1556 1556 1555 1554 1553 1551 1550 1549 1548 1546 1545 1544 1543 1542 1540 1539 1537 1536 1534 1532 1531 1529 1527 1525 1524
1560 1560 1561 1561 1561 1561 1561 1561 1561 1561 1561 1560 1560 1559 1559 1558 1558 1557 1556 1555 1554 1553 1552 1550 1549 1548 1547 1545 1544 1543 1541 1540 1538 1536 1535 1533 1532 1530 1528 1526 1524 1523
1561 1561 1561 1561 1561 1562 1561 1561 1561 1561 1561 1561 1560 1560 1559 1559 1558 1557 1557 1556 1554 1553 1552 1551 1549 1548 1547 1546 1544 1542 1541 1539 1538 1536 1534 1533 1531 1529 1527 1526 1524 1522
1562 1562 1562 1562 1562 1562 1562 1562 1562 1562 1562 1561 1561 1560 1560 1559 1558 1557 1557 1556 1554 1553 1552 1551 1550 1548 1547 1545 1544 1542 1540 1539 1537 1535 1534 1532 1530 1529 1527 1525 1524 1522
1563 1563 1563 1563 1563 1563 1563 1563 1562 1562 1562 1561 1561 1561 1560 1559 1559 1558 1557 1556 1555 1554 1552 1551 1550 1548 1547 1545 1544 1542 1540 1539 1537 1535 1534 1532 1530 1529 1527 1525 1523 1522
1564 1564 1564 1564 1564 1564 1564 1563 1563 1563 1562 1562 1561 1561 1560 1560 1559 1558 1557 1556 1555 1554 1553 1551 1550 1549 1547 1545 1544 1542 1540 1539 1537 1536 1534 1532 1530 1529 1527 1525 1524 1522
1564 1565 1565 1565 1565 1564 1564 1564 1563 1563 1563 1562 1562 1561 1561 1560 1559 1559 1558 1557 1556 1554 1553 1552 1550 1549 1547 1545 1544 1542 1540 1539 1537 1535 1534 1532 1530 1529 1527 1526 1524 1522
1565 1565 1565 1565 1565 1565 1565 1564 1564 1564 1563 1563 1563 1562 1561 1561 1560 1559 1558 1557 1556 1555 1554 1552 1550 1549 1547 1545 1543 1542 1540 1538 1537 1535 1533 1531 1530 1528 1527 1526 1524 1521
1566 1566 1566 1566 1566 1566 1566 1565 1565 1564 1564 1564 1563 1562 1562 1561 1561 1560 1559 1558 1557 1555 1554 1552 1551 1549 1548 1546 1544 1542 1539 1537 1536 1535 1533 1531 1530 1528 1527 1525 1523 1520
1567 1567 1567 1567 1567 1566 1566 1566 1566 1565 1565 1564 1564 1563 1562 1562 1561 1560 1559 1558 1557 1556 1555 1553 1551 1550 1548 1546 1544 1541 1539 1536 1536 1535 1533 1532 1530 1528 1527 1524 1521 1519
1567 1568 1568 1568 1567 1567 1567 1567 1566 1566 1565 1565 1564 1563 1563 1562 1562 1561 1559 1558 1557 1556 1555 1554 1552 1550 1548 1545 1543 1541 1538 1536 1536 1535 1533 1532 1531 1528 1527 1524 1521 1518
1568 1568 1568 1568 1568 1568 1567 1567 1567 1567 1566 1565 1565 1564 1564 1563 1562 1561 1560 1559 1558 1557 1556 1554 1552 1550 1548 1545 1543 1540 1538 1536 1536 1535 1534 1533 1531 1529 1527 1525 1522 1519
1568 1569 1569 1569 1568 1568 1568 1568 1568 1567 1567 1566 1565 1565 1564 1563 1563 1562 1560 1559 1558 1558 1556 1554 1552 1550 1548 1545 1543 1540 1538 1537 1537 1536 1534 1534 1532 1530 1528 1526 1523 1520
1569 1569 1569 1569 1569 1569 1569 1569 1568 1568 1567 1567 1566 1566 1565 1564 1563 1562 1561 1560 1559 1558 1557 1555 1553 1551 1548 1546 1543 1540 1538 1538 1538 1537 1535 1535 1533 1531 1529 1526 1523 1520
1569 1569 1569 1569 1569 1569 1569 1569 1569 1568 1568 1567 1567 1566 1565 1565 1564 1563 1562 1561 1560 1558 1557 1556 1554 1552 1549 1546 1543 1541 1539 1539 1539 1537 1536 1535 1533 1531 1529 1527 1524 1521
1569 1569 1569 1569 1570 1570 1569 1569 1569 1569 1568 1568 1567 1567 1566 1565 1565 1564 1563 1562 1561 1559 1558 1557 1555 1552 1549 1547 1544 1541 1539 1539 1539 1538 1536 1535 1533 1531 1529 1527 1524 1521
1569 1569 1570 1570 1570 1570 1570 1569 1569 1569 1569 1568 1568 1567 1567 1566 1565 1565 1564 1562 1561 1560 1559 1557 1556 1553 1550 1548 1545 1542 1540 1540 1540 1538 1537 1536 1534 1532 1530 1528 1525 1522
1569 1570 1570 1570 1570 1570 1570 1570 1570 1570 1569 1569 1568 1568 1568 1567 1566 1566 1565 1563 1562 1561 1559 1558 1556 1554 1551 1549 1547 1544 1542 1541 1541 1539 1537 1536 1534 1532 1530 1528 1525 1522
1569 1570 1570 1570 1570 1570 1570 1570 1570 1570 1570 1569 1569 1569 1568 1568 1567 1566 1565 1564 1563 1562 1560 1558 1556 1554 1552 1550 1548 1546 1543 1542 1541 1539 1537 1536 1535 1533 1530 1528 1525 1522